SCP
5 5 4 4 4 3 3 2 2 2 2 2 2 1 2 2 2 1 1 1 0 0 1 1 1 1 2 2 3 3 3 2 2 2 2 1 1 1 1 1 1 1 1
4 4 4 3 3 3 2 2 2 2 2 2 2 1 1 1 2 2 1 1 1 0 1 1 1 1 2 2 2 3 3 2 2 2 2 1 1 1 1 1 1 1 1
3 3 3 2 2 2 1 1 1 2 2 2 2 1 1 1 2 2 2 1 1 1 1 1 1 1 2 2 2 2 2 2 2 2 2 1 1 1 1 1 1 1 1
2 2 2 1 1 1 1 0 0 1 2 2 2 1 1 1 1 2 2 2 2 1 1 1 1 1 2 1 2 2 2 2 2 2 2 2 1 1 1 1 1 1 1
2 2 1 1 0 0 0 0 0 0 1 2 1 1 1 1 1 1 2 2 2 2 1 1 1 1 1 1 1 1 2 1 1 2 2 2 1 1 1 0 0 0 0
2 2 1 1 0 0 0 0 0 0 0 1 1 1 0 0 1 1 1 2 2 2 2 2 2 1 1 1 1 1 1 1 1 2 2 1 1 1 1 0 0 0 0
1 2 1 1 0 0 0 0 0 0 0 1 1 1 0 0 0 1 1 1 1 2 2 2 2 2 2 1 1 1 1 1 1 1 1 1 1 1 1 1 1 0 0
1 1 1 1 0 0 0 0 0 0 0 0 1 1 0 0 0 0 0 1 1 1 1 2 2 2 2 2 1 1 1 1 1 1 1 1 1 1 1 1 1 0 0
1 1 1 1 1 0 0 0 0 0 0 0 1 1 0 0 0 0 0 0 0 0 1 1 1 1 1 2 2 1 1 1 1 1 2 1 1 1 1 1 1 1 1
1 1 1 1 1 0 0 0 0 0 0 0 0 0 0 0 0 0 0 0 0 0 0 0 0 1 1 1 2 2 1 1 2 2 1 1 1 1 1 1 1 1 1
1 1 1 1 1 1 0 0 0 0 0 0 0 0 0 0 0 0 0 0 0 0 0 0 0 1 1 1 1 1 1 1 1 1 1 1 1 1 1 1 1 1 1
1 1 1 1 1 1 1 0 0 0 0 0 0 0 0 0 0 0 0 0 0 0 0 0 0 0 1 1 1 1 1 1 1 1 1 1 1 1 1 0 0 0 0
1 1 1 1 1 1 1 0 0 0 0 0 0 0 0 0 0 0 0 0 0 0 0 0 0 0 0 0 0 0 0 0 0 1 1 1 0 0 0 0 0 0 0
2 1 1 1 1 1 1 1 0 0 0 0 0 0 0 0 0 0 0 0 0 0 0 0 0 0 0 0 0 0 0 0 0 0 0 0 0 0 0 0 0 0 0
2 2 1 1 1 1 1 1 0 0 0 0 0 0 0 0 0 0 0 0 0 0 0 0 0 0 0 0 0 0 0 0 0 0 0 0 0 0 0 0 0 0 0
2 2 1 1 1 1 1 1 0 0 0 0 0 0 0 0 0 0 0 0 0 0 0 0 0 0 0 0 0 0 0 0 0 0 0 0 0 0 0 0 0 0 0
1 1 1 1 1 1 1 1 1 0 0 1 0 0 0 0 0 0 0 0 0 0 0 0 0 0 0 0 0 0 0 0 0 0 0 0 0 0 0 0 0 0 0
0 0 1 1 1 1 1 1 1 1 1 1 0 0 0 0 0 0 0 0 0 0 0 0 0 0 0 0 0 0 0 0 0 0 0 0 0 0 0 0 0 0 0
0 0 0 1 1 1 1 1 1 1 1 1 0 0 0 0 0 0 0 0 0 0 0 0 0 0 0 0 0 0 0 0 0 0 0 0 0 0 0 0 0 0 0
0 0 0 0 0 1 1 1 1 1 1 1 0 0 0 0 0 0 0 0 0 0 0 0 0 0 0 0 0 0 0 0 0 0 0 0 0 0 0 0 0 0 0
0 0 0 0 0 0 0 1 1 1 1 1 1 0 0 0 0 0 0 0 0 0 0 0 0 0 0 0 0 0 0 0 0 0 0 0 0 0 0 0 0 0 0
0 0 0 0 0 0 0 0 1 1 1 1 1 0 0 0 0 0 0 0 0 0 0 0 0 0 0 0 0 0 0 0 0 0 0 0 0 0 0 0 0 0 0
0 0 0 0 0 0 0 0 0 1 1 1 0 0 0 0 0 0 0 0 0 0 0 0 0 0 0 0 0 0 0 0 0 0 0 0 0 0 0 0 0 0 0
0 0 0 0 0 0 0 0 0 0 0 0 0 0 0 0 0 0 0 0 0 0 0 0 0 0 0 0 0 0 0 0 0 0 0 0 0 0 0 0 0 0 0
0 0 0 0 0 0 0 0 0 0 0 0 0 0 0 0 0 0 0 0 0 0 0 0 0 0 0 0 0 0 0 0 0 0 0 0 0 0 0 0 0 0 0
0 0 0 0 0 0 0 0 0 1 1 0 0 0 0 0 0 0 0 0 0 0 0 0 0 0 0 0 0 0 0 0 0 0 0 0 0 0 0 0 0 0 0
Wind_Speed
1 1 1 1 1 1 1 1 1 2 2 2 1 1 1 1 1 1 2 5 5 4 3 3 3 2 3 3 3 2 2 3 3 3 4 4 4 4 4 4 4 5 5
1 1 1 1 1 1 1 0 1 1 1 1 1 1 1 1 1 1 1 2 4 5 4 3 3 2 2 2 2 3 2 2 3 3 3 4 4 5 5 5 5 5 6
2 1 1 1 0 1 1 1 1 1 1 1 1 1 0 0 1 1 1 1 1 3 4 4 3 2 2 3 3 2 3 3 3 3 3 4 4 5 5 6 6 6 6
2 2 1 1 0 0 0 0 1 1 1 1 0 0 0 0 1 1 0 1 1 1 2 4 4 3 3 3 3 3 3 4 4 3 4 4 4 5 5 6 6 7 7
2 2 1 1 1 1 1 1 1 1 1 1 1 1 1 1 1 1 1 0 1 1 1 2 3 3 4 4 4 4 4 4 5 4 4 4 5 5 6 6 7 7 7
2 2 1 1 2 1 1 1 1 1 1 1 1 1 1 1 1 1 1 1 0 1 1 2 1 1 3 4 4 4 4 5 5 5 5 5 6 6 7 7 7 7 7
2 2 2 2 2 2 2 2 1 2 1 1 1 1 2 2 2 1 1 1 1 1 1 2 2 2 1 2 4 5 5 5 6 6 6 6 7 7 7 7 7 7 8
3 2 3 2 2 2 2 2 2 2 1 1 2 2 2 3 2 2 2 2 2 2 2 2 2 2 2 2 2 4 5 6 6 7 7 7 7 7 8 8 8 9 9
3 3 3 3 3 3 3 3 3 3 2 2 2 2 2 2 1 2 2 2 2 2 2 2 3 3 3 2 2 2 5 6 7 7 7 8 8 8 8 9 9 9 10
3 3 4 3 3 3 3 3 3 3 3 3 2 2 2 2 2 2 2 2 3 3 3 3 3 3 3 2 2 4 5 6 7 7 8 9 9 9 9 9 10 10 11
3 3 4 4 3 3 3 3 3 3 3 3 3 2 2 2 3 3 3 3 3 3 3 4 3 3 3 3 3 3 5 6 7 8 8 9 10 10 10 10 10 10 11
3 4 4 4 4 3 4 4 4 4 4 4 4 3 3 3 3 3 4 4 4 3 3 3 3 3 3 3 3 4 5 6 6 7 8 9 10 10 11 11 11 11 11
3 4 4 4 4 4 4 4 4 4 5 5 5 4 4 4 3 3 4 4 4 4 3 3 3 3 3 3 2 3 5 6 6 7 8 8 9 9 10 11 11 11 11
4 5 5 4 4 4 4 4 4 4 4 5 5 5 3 3 3 3 3 3 4 4 4 4 3 3 3 3 3 4 4 5 6 7 7 8 8 9 10 10 11 11 11
4 5 5 5 4 4 4 4 4 4 4 4 4 4 4 3 3 4 4 4 4 4 5 4 3 3 3 3 4 4 5 5 7 7 8 8 8 9 10 10 10 10 10
5 5 5 5 4 4 4 4 4 4 4 4 3 4 4 3 3 3 4 4 4 4 5 3 4 4 4 4 5 5 5 6 7 8 8 8 9 9 10 10 10 10 10
5 5 5 5 5 4 4 4 4 4 4 4 4 4 5 4 3 3 3 4 4 4 5 5 4 4 6 6 5 5 5 5 4 6 8 9 9 9 10 10 10 10 10
5 4 5 5 5 4 4 4 4 4 5 5 4 4 5 4 4 3 3 4 4 4 5 6 5 5 6 6 6 5 5 4 5 6 7 9 9 9 10 10 10 10 10
4 4 5 5 5 5 5 5 5 4 5 5 5 5 5 5 5 4 4 4 4 4 4 4 5 4 4 4 5 5 5 5 5 5 6 8 8 9 9 10 9 9 9
4 5 5 5 5 5 5 4 4 4 4 4 5 5 5 5 5 5 4 4 4 3 3 4 4 4 4 5 4 4 4 4 4 4 5 6 7 8 9 9 9 9 8
4 4 4 4 4 4 4 4 4 4 4 4 4 5 5 5 5 5 4 4 4 3 3 3 4 4 4 4 4 4 4 4 4 4 4 4 4 5 5 6 7 7 8
3 4 4 4 4 3 3 4 4 4 4 4 4 4 4 5 5 5 6 6 5 4 5 4 4 5 5 5 4 4 4 4 4 2 4 5 4 4 4 4 5 7 8
3 3 3 4 4 4 4 4 4 4 4 4 4 3 3 3 4 4 4 5 5 6 7 6 6 6 5 5 5 5 5 5 5 3 4 5 4 4 4 4 6 8 8
2 2 3 3 3 3 3 3 2 3 3 3 4 4 4 3 3 3 3 3 4 4 5 5 5 6 5 5 5 5 5 5 5 4 4 4 4 5 5 4 5 7 8
2 2 2 2 2 2 2 2 2 2 2 3 3 3 4 4 3 3 3 3 3 3 2 3 5 5 6 7 6 4 4 4 4 3 2 3 4 5 5 4 4 5 7
1 1 1 1 2 2 2 2 2 2 2 2 2 2 4 5 4 4 3 3 3 3 3 2 3 4 4 4 5 5 4 4 4 3 2 3 3 3 3 3 3 4 4
Wind_Direction
123 122 124 112 111 105 103 125 133 117 108 91 67 57 47 32 24 19 50 40 24 25 35 36 44 62 68 59 47 44 35 20 10 4 11 6 355 344 339 339 341 340 336
143 146 142 133 146 137 111 124 138 123 114 105 85 59 26 10 3 11 27 48 35 24 25 30 36 37 36 32 24 22 9 1 359 360 358 358 359 352 337 327 326 327 329
170 165 148 148 110 120 147 134 143 136 126 126 116 96 35 357 327 334 359 351 17 35 26 19 18 14 8 356 0 355 355 341 337 342 344 345 341 337 337 338 333 328 326
181 173 166 171 150 152 150 138 181 156 158 177 182 210 242 253 250 294 324 344 355 0 30 21 2 358 354 345 340 336 324 331 319 313 320 325 328 331 331 332 329 329 326
190 182 186 184 180 178 168 175 216 214 190 199 224 252 259 259 255 258 268 327 354 348 341 25 8 359 346 339 334 328 329 328 326 310 305 311 316 317 316 320 323 323 325
201 191 186 192 201 195 189 188 188 218 232 225 223 234 244 249 242 247 249 250 292 306 319 330 329 357 350 344 336 328 326 326 320 326 313 307 310 309 310 313 318 321 322
208 203 195 198 207 208 209 202 202 193 221 257 246 234 221 218 225 232 239 248 244 275 306 320 316 316 321 346 340 331 328 325 324 318 318 313 312 313 312 312 315 318 319
217 211 205 202 206 209 210 209 208 210 202 237 272 261 240 205 198 233 239 249 260 277 289 301 300 297 300 297 342 335 324 320 320 320 324 313 311 311 309 310 311 311 312
219 218 216 213 205 207 212 212 209 215 213 210 254 268 261 258 291 207 238 250 264 284 286 290 285 285 284 287 293 325 325 318 313 316 317 316 306 305 308 308 308 307 310
222 218 216 216 212 214 213 211 214 223 215 215 216 258 288 306 266 260 223 238 268 277 280 283 276 277 279 279 296 317 321 317 314 313 312 310 311 305 305 307 306 305 306
223 220 216 216 215 219 219 214 212 220 219 219 222 223 235 252 258 258 263 259 264 268 281 284 275 271 274 273 281 310 312 308 309 311 309 308 307 309 306 303 305 305 306
222 222 220 220 219 219 220 219 217 222 226 223 224 227 230 234 241 253 260 266 276 284 285 277 267 270 271 272 284 306 303 302 304 308 309 308 307 305 306 309 304 304 303
225 225 222 222 221 221 221 218 218 227 227 226 230 231 234 243 250 257 260 270 283 288 277 269 272 275 271 275 280 301 290 293 298 302 304 306 304 303 302 304 305 301 302
227 226 225 225 223 219 220 218 220 226 232 227 231 234 237 239 242 244 251 256 270 275 270 273 285 277 277 285 300 291 284 288 292 294 297 297 299 301 300 299 302 303 304
227 223 226 224 224 220 223 222 223 223 229 228 228 232 238 243 242 243 241 240 248 268 276 275 282 286 292 291 291 283 286 292 291 290 292 293 296 298 300 298 298 301 302
221 220 223 225 224 220 219 222 228 225 229 228 231 235 241 240 246 246 237 239 243 252 268 280 286 289 295 288 289 286 286 289 278 283 287 291 294 295 297 299 298 299 301
216 218 221 221 220 219 219 218 222 222 226 228 233 237 244 245 241 246 241 237 243 248 257 276 284 286 288 288 288 287 285 286 281 279 284 287 290 292 293 295 295 297 300
216 215 218 219 219 218 219 221 221 222 225 227 234 237 242 244 242 247 248 244 246 249 251 265 276 281 283 287 292 291 288 284 282 284 282 284 289 292 295 296 294 295 297
211 209 213 216 218 218 221 223 223 228 230 231 234 236 242 243 243 245 249 255 257 259 254 257 270 280 286 289 292 290 285 281 279 276 277 278 284 290 295 294 294 294 293
208 209 214 218 220 220 223 224 226 231 229 232 235 238 241 242 244 246 247 251 255 258 255 256 263 274 282 288 285 287 285 282 279 280 282 281 282 283 287 287 290 292 294
215 211 210 215 220 225 227 227 226 228 232 237 240 242 244 245 251 252 253 249 248 251 255 259 262 267 271 277 277 282 285 292 283 284 286 281 282 282 283 281 283 288 293
212 206 208 214 221 226 228 231 238 232 231 238 247 250 250 238 241 247 251 253 254 250 251 253 258 258 269 280 289 284 284 285 284 289 292 291 290 289 295 298 307 299 296
206 210 216 219 228 229 219 224 234 241 238 239 242 246 254 250 249 249 249 247 247 246 249 254 257 262 270 272 277 281 279 281 283 291 293 289 294 293 298 298 303 302 299
204 214 219 222 231 228 213 221 241 241 246 243 240 244 251 255 252 256 263 267 270 266 256 253 257 265 270 272 272 277 282 285 283 274 278 282 293 295 297 293 297 301 302
204 220 223 221 230 235 210 214 242 236 237 250 248 248 251 253 250 247 257 266 280 289 276 259 268 271 274 274 272 270 266 270 278 278 271 274 287 296 292 285 289 294 301
206 208 231 237 238 244 222 222 235 231 236 250 254 253 248 255 259 252 247 249 263 278 284 285 272 269 270 267 267 263 261 263 273 274 263 265 283 301 293 286 306 310 303